OpenBCM V1.13 (Linux)

Packet Radio Mailbox

DB0FHN

[JN59NK Nuernberg]

 Login: GUEST





  
LU9DCE > KEP      17.07.19 20:32l 245 Lines 12053 Bytes #999 (0) @ WW
BID : 28667_LU9DCE
Read: DF7EAV DJ6UX GUEST
Subj: TLE 17 07
Path: DB0FHN<OE2XZR<OE5XBR<OE1XAB<HG8LXL<XE1FH<LU9DCE
Sent: 190717/1804Z 28667@LU9DCE.TOR.BA.ARG.SOAM LinBPQ6.0.18

            __    _  _  ___  ____   ___  ____    ____  ____  ____
           (  )  / )( \/ _ \(    \ / __)(  __)  (  _ \(  _ \/ ___)
           / (_/\) \/ (\__  )) D (( (__  ) _)    ) _ ( ) _ (\___ \
           \____/\____/(___/(____/ \___)(____)  (____/(____/(____/
               ESTACION DE PACKET RADIO - BUENOS AIRES (GF05OM)
                   BOLETINES INFORMATIVOS PROGRAMADOS (BIP)
                  SLACKWARE LINUX - HELLOCODELINUX@GMAIL.COM

+----------------------------------------------------------------------------+
OSCAR 7
1  7530U 74089B   19197.48821601 -.00000052  00000-0 -43671-4 0  9994
2  7530 101.7454 164.8663 0011799 295.1010 178.8199 12.53638861 44002
OSCAR 11 (UoSAT 2)
1 14781U 84021B   19198.50906181  .00000054  00000-0  12712-4 0  9990
2 14781  97.6092 221.8627 0007473 216.7046 143.3657 14.83095702903034
OSCAR 19 (LUSAT)
1 20442U 90005G   19197.87929090 -.00000006 +00000-0 +14022-4 0  9997
2 20442 098.6496 139.8339 0012905 068.3646 291.8911 14.32928890540356
EYESAT A
1 22825U 93061C   19198.46608979 -.00000021  00000-0  98606-5 0  9993
2 22825  98.9041 187.7612 0007290 276.5255  83.5097 14.30062449346068
ITAMSAT
1 22826U 93061D   19197.48175087 -.00000009  00000-0  14405-4 0  9994
2 22826  98.8980 186.7423 0007790 266.7920  93.2370 14.30396145346126
RADIO ROSTO
1 23439U 94085A   19198.16311847 -.00000037  00000-0  14809-3 0  9992
2 23439  64.8173  70.0839 0146174 107.6506 254.0438 11.27568378 11261
JAS 2
1 24278U 96046B   19198.38865395 -.00000048  00000-0 -14696-4 0  9997
2 24278  98.5410 347.9100 0350681 165.4414 195.7147 13.53092580131683
TECHSAT 1B
1 25397U 98043D   19198.08326727 -.00000034  00000-0  45287-5 0  9992
2 25397  98.6896 137.8851 0001009  14.6303 345.4905 14.23667705 91915
ISS (ZARYA)
1 25544U 98067A   19198.53921248  .00000179  00000-0  10889-4 0  9999
2 25544  51.6431 210.6836 0007017 149.3688 349.0941 15.50982016179961
PCSAT
1 26931U 01043C   19198.44517261 -.00000041  00000-0  16181-4 0  9994
2 26931  67.0518 289.4825 0007121 277.0253  83.0038 14.30547008929087
SAUDISAT 1C
1 27607U 02058C   19198.48646993 -.00000059  00000-0  12738-4 0  9994
2 27607  64.5559 321.5596 0080346 250.9858 108.2527 14.75558808891281
CUTE-1
1 27844U 03031E   19198.49816442  .00000024  00000-0  30445-4 0  9994
2 27844  98.6833 206.2804 0008887 313.2892  46.7543 14.22185501832387
CUBESAT XI 4
1 27848U 03031J   19198.49850824  .00000020  00000-0  28876-4 0  9991
2 27848  98.6910 206.7871 0008998 325.8266  34.2331 14.21779889832231
MOZHAYETS 4
1 27939U 03042A   19198.56280647  .00000016  00000-0  11551-4 0  9999
2 27939  98.0444 333.8210 0012390 341.4379  18.6376 14.66790727844777
CUBESAT XI 5
1 28895U 05043F   19198.35723157  .00000069  00000-0  22155-4 0  9999
2 28895  97.9630 340.1115 0015410 260.1834  99.7629 14.63675332731674
CUTE-1.7+APD II
1 32785U 08021C   19198.46066771  .00000117  00000-0  18256-4 0  9996
2 32785  97.5497 196.8187 0013510 160.8728 199.2999 14.88321115607960
DELFI C3
1 32789U 08021G   19197.90444947 +.00000625 +00000-0 +45698-4 0  9997
2 32789 097.4623 246.7162 0013066 036.0786 324.1321 15.06999886611113
SEEDS
1 32791U 08021J   19198.49784131  .00000295  00000-0  35231-4 0  9992
2 32791  97.5276 202.8570 0014420 136.9440 223.2910 14.90835690608404
YUBELEINY
1 32953U 08025A   19198.45785087  .00000021  00000-0  75656-4 0  9995
2 32953  82.5025 126.8786 0020451  66.2045 294.1177 12.43090682505881
PRISM (HITOMI)
1 33493U 09002B   19198.00947193  .00000682  00000-0  65217-4 0  9995
2 33493  98.1219 120.0389 0016886  88.9833 271.3322 14.96679245569389
KKS-1 (KISEKI)
1 33499U 09002H   19198.15783708  .00000070  00000-0  18411-4 0  9992
2 33499  98.3487  37.7706 0010387 112.7444 247.4863 14.75448466563424
SWISSCUBE
1 35932U 09051B   19198.45423175  .00000088  00000-0  30898-4 0  9994
2 35932  98.5904   5.2721 0008860  79.9537 280.2659 14.56292796520963
BEESAT
1 35933U 09051C   19198.45544994  .00000068  00000-0  26263-4 0  9997
2 35933  98.5928   7.0447 0007102  91.2761 268.9249 14.56380954521074
ITUPSAT 1
1 35935U 09051E   19198.46097563  .00000053  00000-0  23263-4 0  9996
2 35935  98.6039   7.2864 0009389  88.7595 271.4677 14.55539901520823
XIWANG-1 (HOPE-1)
1 36122U 09072B   19198.16147035 -.00000025  00000-0  46158-4 0  9993
2 36122 100.0725 199.2019 0006997 280.6670  79.3633 13.16350411460626
TISAT 1
1 36799U 10035E   19198.47035993  .00000058  00000-0  12031-4 0  9995
2 36799  98.1590 351.5820 0012086 358.4644   1.6534 14.91118471489055
JUGNU
1 37839U 11058B   19197.29909058  .00000287  00000-0  10910-4 0  9996
2 37839  19.9601 167.3607 0018708 271.3547 232.3505 14.12654019401166
SRMSAT
1 37841U 11058D   19197.45904662  .00000266  00000-0  76616-6 0  9997
2 37841  19.9705 223.7500 0011911 141.1756   4.8674 14.10634971400619
M-CUBED/EXP-1 PRIME
1 37855U 11061F   19197.44713990  .00000913  00000-0  53569-4 0  9996
2 37855 101.7121 107.2907 0173592 354.6148   5.3193 15.05478735420953
HORYU 2
1 38340U 12025D   19197.91762268 +.00000114 +00000-0 +24709-4 0  9998
2 38340 098.3271 237.3527 0012282 040.1751 320.0363 14.75728481374910
STRAND 1
1 39090U 13009E   19197.53556886  .00000022  00000-0  22875-4 0  9999
2 39090  98.4862  43.0238 0008632 199.1566 160.9296 14.35090098334389
SOMP
1 39134U 13015E   19198.50333392  .00000501  00000-0  32286-4 0  9997
2 39134  64.8636 287.0912 0032270 298.8941  60.8949 15.20200659344972
BEESAT 3
1 39135U 13015F   19198.14709297  .00000449  00000-0  32114-4 0  9990
2 39135  64.8701 306.9431 0025075 316.2428  43.6710 15.17505123344563
BEESAT 2
1 39136U 13015G   19197.93111294  .00000407  00000-0  30497-4 0  9997
2 39136  64.8712 311.5463 0020615 299.1042  60.8019 15.16933604344458
CUBEBUG 1
1 39153U 13018D   19198.21550038  .00000078  00000-0  17116-4 0  9991
2 39153  97.9798 296.1815 0018409 105.3256 254.9992 14.80574815336047
ZACUBE
1 39417U 13066B   19198.01170172  .00000129  00000-0  22710-4 0  9995
2 39417  97.5616 209.9215 0057572 302.0462  57.5167 14.81124822305238
TRITON 1
1 39427U 13066M   19198.49535763  .00000151  00000-0  31760-4 0  9999
2 39427  97.6777 174.0953 0115358  73.4547 287.9294 14.67851312302567
GOMX 1
1 39430U 13066Q   19198.49048324  .00000099  00000-0  26800-4 0  9995
2 39430  97.7491 153.1495 0151339 162.9752 197.6594 14.59260887300802
HUMSAT D
1 39433U 13066T   19198.11294210  .00000050  00000-0  10200-4 0  9998
2 39433  97.5516 244.4552 0030169 203.0320 156.9549 14.92207458307317
CUBEBUG 2
1 39440U 13066AA  19198.49764990  .00000118  00000-0  23506-4 0  9992
2 39440  97.6024 195.2340 0080074 352.5778   7.4240 14.75863150304228
FUNCUBE 1
1 39444U 13066AE  19197.99662746  .00000160  00000-0  26134-4 0  9993
2 39444  97.5597 211.8806 0056578 295.6957  63.8421 14.81945319304127
UWE-3
1 39446U 13066AG  19198.45240422  .00000109  00000-0  21357-4 0  9995
2 39446  97.5809 202.2461 0069171 327.3840  32.3109 14.78397555303518
SPROUT
1 39770U 14029E   19198.35791162  .00000422  00000-0  52762-4 0  9998
2 39770  97.8857 301.4649 0008856   0.9603 359.1605 14.87362783279099
UNISAT 6
1 40012U 14033C   19197.50843147  .00000116  00000-0  24746-4 0  9992
2 40012  97.7543  62.9169 0058685   9.6342 350.5977 14.73985541272782
DUCHIFAT 1
1 40021U 14033M   19197.46877264  .00000341  00000-0  40614-4 0  9996
2 40021  97.9236 122.1546 0012097 324.8782  35.1637 14.90642510275684
QB50P1
1 40025U 14033R   19197.52216132  .00000193  00000-0  26560-4 0  9997
2 40025  97.9053 117.1618 0011839 334.7245  25.3391 14.88953368275463
CHUBUSAT 1
1 40300U 14070C   19198.24763271  .00000363  00000-0  18801-4 0  9993
2 40300  97.3239 271.7046 0019598 319.1579  75.3729 15.22107140260369
NUDT-PHONESAT
1 40900U 15049B   19198.50086428  .00001416  00000-0  63364-4 0  9991
2 40900  97.4366 207.5517 0014556  84.1696  66.6379 15.22850088212047
ZDPS 2A
1 40901U 15049C   19198.49897416  .00000612  00000-0  33608-4 0  9992
2 40901  97.4590 203.9034 0015047 101.1928  49.8894 15.17750481211601
ZDPS 2B
1 40902U 15049D   19198.46271215  .00000810  00000-0  43556-4 0  9996
2 40902  97.4537 201.3527 0015121  98.8618  57.3394 15.17575253211570
XW-2A
1 40903U 15049E   19198.53608694  .00001384  00000-0  34493-4 0  9997
2 40903  97.3361 241.4605 0014862  45.9289  86.2762 15.41916891214695
KAITUO 1A
1 40904U 15049F   19198.46865725  .00000467  00000-0  28205-4 0  9995
2 40904  97.4666 199.9831 0016104 106.2319  47.6066 15.15378186211357
OBJECT G
1 40905U 15049G   19198.50322822  .00000025  00000-0  49370-5 0  9994
2 40905  97.4705 197.5423 0017127 101.2952  52.2329 15.14301140211233
XW-2C
1 40906U 15049H   19198.38895314  .00000515  00000-0  30457-4 0  9991
2 40906  97.4677 199.9904 0016400  98.2922   7.5362 15.15692567211346
XW-2D
1 40907U 15049J   19198.36325741  .00000246  00000-0  16292-4 0  9994
2 40907  97.4647 199.6442 0015723  96.3453  10.7888 15.15879192211354
LILACSAT 2
1 40908U 15049K   19198.49072914  .00000365  00000-0  23768-4 0  9998
2 40908  97.4782 198.5885 0017398 101.8962  49.0645 15.13812468211167
XW-2F
1 40910U 15049M   19198.50405272  .00000573  00000-0  32042-4 0  9996
2 40910  97.4617 201.8078 0016414  89.2299  61.8355 15.17321691211380
XW-2B
1 40911U 15049N   19198.39771141  .00000649  00000-0  37361-4 0  9998
2 40911  97.4676 200.3312 0015692  96.2554  13.4775 15.15812540211251
KAITUO 1B
1 40912U 15049P   19198.49148324  .00000893  00000-0  44978-4 0  9994
2 40912  97.4489 205.4700 0016639  73.2439  79.0025 15.19638546211689
TIANWANG 1C (TW-1C)
1 40926U 15051B   19198.53629194  .00007495  00000-0  10847-3 0  9998
2 40926  97.1340 244.6785 0006080 262.9160 237.7514 15.56170668214644
